TIME,�Ζ��t�@���q�[�^�[�[-���� [L],�t���O,�Ζ��t�@���q�[�^�[-���� [MJ/h],�t���O
2004/4/1 0:00,0,0,0,0
2004/4/1 0:15,0,0,0,0
2004/4/1 0:30,0,0,0,0
2004/4/1 0:45,0,0,0,0
2004/4/1 1:00,0,0,0,0
2004/4/1 1:15,0,0,0,0
2004/4/1 1:30,0,0,0,0
2004/4/1 1:45,0,0,0,0
2004/4/1 2:00,0,0,0,0
2004/4/1 2:15,0,0,0,0
2004/4/1 2:30,0,0,0,0
2004/4/1 2:45,0,0,0,0
2004/4/1 3:00,0,0,0,0
2004/4/1 3:15,0,0,0,0
2004/4/1 3:30,0,0,0,0
2004/4/1 3:45,0,0,0,0
2004/4/1 4:00,0,0,0,0
2004/4/1 4:15,0,0,0,0
2004/4/1 4:30,0,0,0,0
2004/4/1 4:45,0,0,0,0
2004/4/1 5:00,0,0,0,0
2004/4/1 5:15,0,0,0,0
2004/4/1 5:30,0,0,0,0
2004/4/1 5:45,0.017529809,0,2.573376,0
2004/4/1 6:00,0.073842834,0,10.840128,0
2004/4/1 6:15,0.070455041,0,10.3428,0
2004/4/1 6:30,0.062956839,0,9.242064,0
2004/4/1 6:45,0.058625395,0,8.606208,0
2004/4/1 7:00,0.052381144,0,7.689552,0
2004/4/1 7:15,0.054293951,0,7.970352,0
2004/4/1 7:30,0.046438692,0,6.8172,0
2004/4/1 7:45,0.053074005,0,7.791264,0
2004/4/1 8:00,0.042396294,0,6.223776,0
2004/4/1 8:15,0.049660708,0,7.290192,0
2004/4/1 8:30,0.035097875,0,5.152368,0
2004/4/1 8:45,0.041864959,0,6.145776,0
2004/4/1 9:00,0.026681526,0,3.916848,0
2004/4/1 9:15,0.051318474,0,7.533552,0
2004/4/1 9:30,0.059118474,0,8.678592,0
2004/4/1 9:45,0.050204796,0,7.370064,0
2004/4/1 10:00,0.037044687,0,5.43816,0
2004/4/1 10:15,0.023956839,0,3.516864,0
2004/4/1 10:30,0.026817548,0,3.936816,0
2004/4/1 10:45,0.02776545,0,4.075968,0
2004/4/1 11:00,0.026490245,0,3.888768,0
2004/4/1 11:15,0,0,0,0
2004/4/1 11:30,0,0,0,0
2004/4/1 11:45,0,0,0,0
2004/4/1 12:00,0,0,0,0
2004/4/1 12:15,0.033843924,0,4.968288,0
2004/4/1 12:30,0.046663978,0,6.850272,0
2004/4/1 12:45,0.034804578,0,5.109312,0
2004/4/1 13:00,0.025822888,0,3.7908,0
2004/4/1 13:15,0.020169482,0,2.96088,0
2004/4/1 13:30,0.015697766,0,2.304432,0
2004/4/1 13:45,0.025053515,0,3.677856,0
2004/4/1 14:00,0.027620926,0,4.054752,0
2004/4/1 14:15,0.044674659,0,6.55824,0
2004/4/1 14:30,0.045163488,0,6.63,0
2004/4/1 14:45,0.010711717,0,1.57248,0
2004/4/1 15:00,0.025317057,0,3.716544,0
2004/4/1 15:15,0.018163161,0,2.666352,0
2004/4/1 15:30,0.01572752,0,2.3088,0
2004/4/1 15:45,0.015697766,0,2.304432,0
2004/4/1 16:00,0.015697766,0,2.304432,0
2004/4/1 16:15,0.022558365,0,3.311568,0
2004/4/1 16:30,0.029716512,0,4.362384,0
2004/4/1 16:45,0,0,0,0
2004/4/1 17:00,0,0,0,0
2004/4/1 17:15,0.018622234,0,2.733744,0
2004/4/1 17:30,0.057507466,0,8.442096,0
2004/4/1 17:45,0.062263978,0,9.140352,0
2004/4/1 18:00,0.052840218,0,7.756944,0
2004/4/1 18:15,0.054017657,0,7.929792,0
2004/4/1 18:30,0.03419248,0,5.019456,0
2004/4/1 18:45,0,0,0,0
2004/4/1 19:00,0,0,0,0
2004/4/1 19:15,0.05934376,0,8.711664,0
2004/4/1 19:30,0.068958801,0,10.123152,0
2004/4/1 19:45,0.048432262,0,7.109856,0
2004/4/1 20:00,0.045044469,0,6.612528,0
2004/4/1 20:15,0.042787357,0,6.281184,0
2004/4/1 20:30,0.048746812,0,7.156032,0
2004/4/1 20:45,0.035884251,0,5.267808,0
2004/4/1 21:00,0.034838583,0,5.114304,0
2004/4/1 21:15,0.044746921,0,6.568848,0
2004/4/1 21:30,0.038277384,0,5.61912,0
2004/4/1 21:45,0.044249591,0,6.49584,0
2004/4/1 22:00,0.049737221,0,7.301424,0
2004/4/1 22:15,0.046659728,0,6.849648,0
2004/4/1 22:30,0.015706267,0,2.30568,0
2004/4/1 22:45,0.015697766,0,2.304432,0
2004/4/1 23:00,0.015693515,0,2.303808,0
2004/4/1 23:15,0.015697766,0,2.304432,0
2004/4/1 23:30,0.015697766,0,2.304432,0
2004/4/1 23:45,0.015697766,0,2.304432,0
2004/4/2 0:00,0.015697766,0,2.304432,0
2004/4/2 0:15,0.015697766,0,2.304432,0
2004/4/2 0:30,0.034940599,0,5.12928,0
2004/4/2 0:45,0,0,0,0
2004/4/2 1:00,0,0,0,0
2004/4/2 1:15,0,0,0,0
2004/4/2 1:30,0,0,0,0
2004/4/2 1:45,0,0,0,0
2004/4/2 2:00,0,0,0,0
2004/4/2 2:15,0,0,0,0
2004/4/2 2:30,0,0,0,0
2004/4/2 2:45,0,0,0,0
2004/4/2 3:00,0,0,0,0
2004/4/2 3:15,0,0,0,0
2004/4/2 3:30,0,0,0,0
2004/4/2 3:45,0,0,0,0
2004/4/2 4:00,0,0,0,0
2004/4/2 4:15,0,0,0,0
2004/4/2 4:30,0,0,0,0
2004/4/2 4:45,0,0,0,0
2004/4/2 5:00,0,0,0,0
2004/4/2 5:15,0,0,0,0
2004/4/2 5:30,0,0,0,0
2004/4/2 5:45,0.016696676,0,2.451072,0
2004/4/2 6:00,0.072729155,0,10.67664,0
2004/4/2 6:15,0.067428556,0,9.898512,0
2004/4/2 6:30,0.044938202,0,6.596928,0
2004/4/2 6:45,0.053783869,0,7.895472,0
2004/4/2 7:00,0.042851117,0,6.290544,0
2004/4/2 7:15,0.053261035,0,7.81872,0
2004/4/2 7:30,0.041597166,0,6.106464,0
2004/4/2 7:45,0.04985624,0,7.318896,0
2004/4/2 8:00,0.04692327,0,6.888336,0
2004/4/2 8:15,0.058680654,0,8.61432,0
2004/4/2 8:30,0.053256785,0,7.818096,0
2004/4/2 8:45,0.058149319,0,8.53632,0
2004/4/2 9:00,0.069366866,0,10.183056,0
2004/4/2 9:15,0.032062888,0,4.706832,0
2004/4/2 9:30,0,0,0,0
2004/4/2 9:45,0,0,0,0
2004/4/2 10:00,0,0,0,0
2004/4/2 10:15,0,0,0,0
2004/4/2 10:30,0,0,0,0
2004/4/2 10:45,0,0,0,0
2004/4/2 11:00,0,0,0,0
2004/4/2 11:15,0,0,0,0
2004/4/2 11:30,0,0,0,0
2004/4/2 11:45,0,0,0,0
2004/4/2 12:00,0,0,0,0
2004/4/2 12:15,0.016365123,0,2.4024,0
2004/4/2 12:30,0.073847084,0,10.840752,0
2004/4/2 12:45,0.073851335,0,10.841376,0
2004/4/2 13:00,0.072975695,0,10.712832,0
2004/4/2 13:15,0.071339183,0,10.472592,0
2004/4/2 13:30,0.054952807,0,8.067072,0
2004/4/2 13:45,0.037495259,0,5.504304,0
2004/4/2 14:00,0.048780817,0,7.161024,0
2004/4/2 14:15,0.020241744,0,2.971488,0
2004/4/2 14:30,0.025202289,0,3.699696,0
2004/4/2 14:45,0.032908774,0,4.831008,0
2004/4/2 15:00,0.019179074,0,2.815488,0
2004/4/2 15:15,0.027238365,0,3.998592,0
2004/4/2 15:30,0.044372861,0,6.513936,0
2004/4/2 15:45,0.020267248,0,2.975232,0
2004/4/2 16:00,0.015740272,0,2.310672,0
2004/4/2 16:15,0.025538093,0,3.748992,0
2004/4/2 16:30,0,0,0,0
2004/4/2 16:45,0,0,0,0
2004/4/2 17:00,0,0,0,0
2004/4/2 17:15,0.049660708,0,7.290192,0
2004/4/2 17:30,0.058735913,0,8.622432,0
2004/4/2 17:45,0.043998801,0,6.459024,0
2004/4/2 18:00,0.045529046,0,6.683664,0
2004/4/2 18:15,0.043420708,0,6.37416,0
2004/4/2 18:30,0.038570681,0,5.662176,0
2004/4/2 18:45,0.048270736,0,7.086144,0
2004/4/2 19:00,0.062485014,0,9.1728,0
2004/4/2 19:15,0.065800545,0,9.65952,0
2004/4/2 19:30,0.04592861,0,6.74232,0
2004/4/2 19:45,0.033899183,0,4.9764,0
2004/4/2 20:00,0.034791826,0,5.10744,0
2004/4/2 20:15,0.041227357,0,6.052176,0
2004/4/2 20:30,0.025618856,0,3.760848,0
2004/4/2 20:45,0.020458529,0,3.003312,0
2004/4/2 21:00,0.01572327,0,2.308176,0
2004/4/2 21:15,0.02283891,0,3.352752,0
2004/4/2 21:30,0.017988883,0,2.640768,0
2004/4/2 21:45,0.029682507,0,4.357392,0
2004/4/2 22:00,0.028985395,0,4.255056,0
2004/4/2 22:15,0.048955095,0,7.186608,0
2004/4/2 22:30,0,0,0,0
2004/4/2 22:45,0,0,0,0
2004/4/2 23:00,0,0,0,0
2004/4/2 23:15,0,0,0,0
2004/4/2 23:30,0,0,0,0
2004/4/2 23:45,0,0,0,0
2004/4/3 0:00,0,0,0,0
2004/4/3 0:15,0,0,0,0
2004/4/3 0:30,0,0,0,0
2004/4/3 0:45,0,0,0,0
2004/4/3 1:00,0,0,0,0
2004/4/3 1:15,0,0,0,0
2004/4/3 1:30,0,0,0,0
2004/4/3 1:45,0,0,0,0
2004/4/3 2:00,0,0,0,0
2004/4/3 2:15,0,0,0,0
2004/4/3 2:30,0,0,0,0
2004/4/3 2:45,0,0,0,0
2004/4/3 3:00,0,0,0,0
2004/4/3 3:15,0,0,0,0
2004/4/3 3:30,0,0,0,0
2004/4/3 3:45,0,0,0,0
2004/4/3 4:00,0,0,0,0
2004/4/3 4:15,0,0,0,0
2004/4/3 4:30,0,0,0,0
2004/4/3 4:45,0,0,0,0
2004/4/3 5:00,0,0,0,0
2004/4/3 5:15,0,0,0,0
2004/4/3 5:30,0,0,0,0
2004/4/3 5:45,0.016050572,0,2.356224,0
2004/4/3 6:00,0.073847084,0,10.840752,0
2004/4/3 6:15,0.073115967,0,10.733424,0
2004/4/3 6:30,0.069158583,0,10.15248,0
2004/4/3 6:45,0.068117166,0,9.9996,0
2004/4/3 7:00,0.061804905,0,9.07296,0
2004/4/3 7:15,0.057481962,0,8.438352,0
2004/4/3 7:30,0.037542016,0,5.511168,0
2004/4/3 7:45,0.053809373,0,7.899216,0
2004/4/3 8:00,0.041779946,0,6.133296,0
2004/4/3 8:15,0.045512044,0,6.681168,0
2004/4/3 8:30,0.043918038,0,6.447168,0
2004/4/3 8:45,0.073851335,0,10.841376,0
2004/4/3 9:00,0.071755749,0,10.533744,0
2004/4/3 9:15,0.05903346,0,8.666112,0
2004/4/3 9:30,0.036772643,0,5.398224,0
2004/4/3 9:45,0.069430627,0,10.192416,0
2004/4/3 10:00,0.054514986,0,8.0028,0
2004/4/3 10:15,0.066153351,0,9.711312,0
2004/4/3 10:30,0.060988774,0,8.953152,0
2004/4/3 10:45,0.05285297,0,7.758816,0
2004/4/3 11:00,0.049465177,0,7.261488,0
2004/4/3 11:15,0.055118583,0,8.091408,0
2004/4/3 11:30,0.049439673,0,7.257744,0
2004/4/3 11:45,0.038018093,0,5.581056,0
2004/4/3 12:00,0,0,0,0
2004/4/3 12:15,0,0,0,0
2004/4/3 12:30,0,0,0,0
2004/4/3 12:45,0,0,0,0
2004/4/3 13:00,0.011952916,0,1.754688,0
2004/4/3 13:15,0.073847084,0,10.840752,0
2004/4/3 13:30,0.071411444,0,10.4832,0
2004/4/3 13:45,0.028309537,0,4.15584,0
2004/4/3 14:00,0.051080436,0,7.498608,0
2004/4/3 14:15,0.043348447,0,6.363552,0
2004/4/3 14:30,0.051803052,0,7.604688,0
2004/4/3 14:45,0.032976785,0,4.840992,0
2004/4/3 15:00,0.039629101,0,5.817552,0
2004/4/3 15:15,0.034961853,0,5.1324,0
2004/4/3 15:30,0.047327084,0,6.947616,0
2004/4/3 15:45,0.039918147,0,5.859984,0
2004/4/3 16:00,0.052189864,0,7.661472,0
2004/4/3 16:15,0.04592436,0,6.741696,0
2004/4/3 16:30,0.043212425,0,6.343584,0
2004/4/3 16:45,0.031319019,0,4.597632,0
2004/4/3 17:00,0.043331444,0,6.361056,0
2004/4/3 17:15,0.061677384,0,9.05424,0
2004/4/3 17:30,0.063186376,0,9.27576,0
2004/4/3 17:45,0.034396512,0,5.049408,0
2004/4/3 18:00,0.023833569,0,3.498768,0
2004/4/3 18:15,0.027217112,0,3.995472,0
2004/4/3 18:30,0.043633243,0,6.40536,0
2004/4/3 18:45,0.070399782,0,10.334688,0
2004/4/3 19:00,0.07244861,0,10.635456,0
2004/4/3 19:15,0.050774387,0,7.45368,0
2004/4/3 19:30,0.054770027,0,8.04024,0
2004/4/3 19:45,0.052019837,0,7.636512,0
2004/4/3 20:00,0.058038801,0,8.520096,0
2004/4/3 20:15,0.03426049,0,5.02944,0
2004/4/3 20:30,0.055318365,0,8.120736,0
2004/4/3 20:45,0.046595967,0,6.840288,0
2004/4/3 21:00,0.04342921,0,6.375408,0
2004/4/3 21:15,0.025533842,0,3.748368,0
2004/4/3 21:30,0.02165297,0,3.178656,0
2004/4/3 21:45,0.026821798,0,3.93744,0
2004/4/3 22:00,0.03818812,0,5.606016,0
2004/4/3 22:15,0.035786485,0,5.253456,0
2004/4/3 22:30,0.032356185,0,4.749888,0
2004/4/3 22:45,0.041971226,0,6.161376,0
2004/4/3 23:00,0,0,0,0
2004/4/3 23:15,0,0,0,0
2004/4/3 23:30,0,0,0,0
2004/4/3 23:45,0,0,0,0
2004/4/4 0:00,0,0,0,0
2004/4/4 0:15,0,0,0,0
2004/4/4 0:30,0,0,0,0
2004/4/4 0:45,0,0,0,0
2004/4/4 1:00,0,0,0,0
2004/4/4 1:15,0,0,0,0
2004/4/4 1:30,0,0,0,0
2004/4/4 1:45,0,0,0,0
2004/4/4 2:00,0,0,0,0
2004/4/4 2:15,0,0,0,0
2004/4/4 2:30,0,0,0,0
2004/4/4 2:45,0,0,0,0
2004/4/4 3:00,0,0,0,0
2004/4/4 3:15,0,0,0,0
2004/4/4 3:30,0,0,0,0
2004/4/4 3:45,0,0,0,0
2004/4/4 4:00,0,0,0,0
2004/4/4 4:15,0,0,0,0
2004/4/4 4:30,0,0,0,0
2004/4/4 4:45,0,0,0,0
2004/4/4 5:00,0,0,0,0
2004/4/4 5:15,0,0,0,0
2004/4/4 5:30,0,0,0,0
2004/4/4 5:45,0,0,0,0
2004/4/4 6:00,0,0,0,0
2004/4/4 6:15,0,0,0,0
2004/4/4 6:30,0,0,0,0
2004/4/4 6:45,0,0,0,0
2004/4/4 7:00,0,0,0,0
2004/4/4 7:15,0,0,0,0
2004/4/4 7:30,0,0,0,0
2004/4/4 7:45,0,0,0,0
2004/4/4 8:00,0,0,0,0
2004/4/4 8:15,0,0,0,0
2004/4/4 8:30,0.031663324,0,4.648176,0
2004/4/4 8:45,0.073847084,0,10.840752,0
2004/4/4 9:00,0.065162943,0,9.56592,0
2004/4/4 9:15,0.066701689,0,9.791808,0
2004/4/4 9:30,0.051237711,0,7.521696,0
2004/4/4 9:45,0.035616458,0,5.228496,0
2004/4/4 10:00,0.04455564,0,6.540768,0
2004/4/4 10:15,0.055318365,0,8.120736,0
2004/4/4 10:30,0.034689809,0,5.092464,0
2004/4/4 10:45,0.027935477,0,4.100928,0
2004/4/4 11:00,0.020547793,0,3.016416,0
2004/4/4 11:15,0.026014169,0,3.81888,0
2004/4/4 11:30,0.026256458,0,3.854448,0
2004/4/4 11:45,0.04206049,0,6.17448,0
2004/4/4 12:00,0.019646649,0,2.884128,0
2004/4/4 12:15,0.018707248,0,2.746224,0
2004/4/4 12:30,0.032615477,0,4.787952,0
2004/4/4 12:45,0.015697766,0,2.304432,0
2004/4/4 13:00,0.015697766,0,2.304432,0
2004/4/4 13:15,0.023293733,0,3.41952,0
2004/4/4 13:30,0.048279237,0,7.087392,0
2004/4/4 13:45,0.023982343,0,3.520608,0
2004/4/4 14:00,0.020135477,0,2.955888,0
2004/4/4 14:15,0.02758267,0,4.049136,0
2004/4/4 14:30,0,0,0,0
2004/4/4 14:45,0,0,0,0
2004/4/4 15:00,0.016093079,0,2.362464,0
2004/4/4 15:15,0.070025722,0,10.279776,0
2004/4/4 15:30,0.061575368,0,9.039264,0
2004/4/4 15:45,0.046659728,0,6.849648,0
2004/4/4 16:00,0.059012207,0,8.662992,0
2004/4/4 16:15,0.039093515,0,5.738928,0
2004/4/4 16:30,0.032237166,0,4.732416,0
2004/4/4 16:45,0.027438147,0,4.02792,0
2004/4/4 17:00,0.040007411,0,5.873088,0
2004/4/4 17:15,0.049635204,0,7.286448,0
2004/4/4 17:30,0.025971662,0,3.81264,0
2004/4/4 17:45,0.046936022,0,6.890208,0
2004/4/4 18:00,0.044228338,0,6.49272,0
2004/4/4 18:15,0.045563052,0,6.688656,0
2004/4/4 18:30,0.031489046,0,4.622592,0
2004/4/4 18:45,0.015714768,0,2.306928,0
2004/4/4 19:00,0.015702016,0,2.305056,0
2004/4/4 19:15,0.026588011,0,3.90312,0
2004/4/4 19:30,0.021976022,0,3.22608,0
2004/4/4 19:45,0.02521079,0,3.700944,0
2004/4/4 20:00,0.037695041,0,5.533632,0
2004/4/4 20:15,0.034553787,0,5.072496,0
2004/4/4 20:30,0.029057657,0,4.265664,0
2004/4/4 20:45,0.03769079,0,5.533008,0
2004/4/4 21:00,0.054255695,0,7.964736,0
2004/4/4 21:15,0.040079673,0,5.883696,0
2004/4/4 21:30,0.056521308,0,8.297328,0
2004/4/4 21:45,0.053397057,0,7.838688,0
2004/4/4 22:00,0.036959673,0,5.42568,0
2004/4/4 22:15,0.031548556,0,4.631328,0
2004/4/4 22:30,0.036156294,0,5.307744,0
2004/4/4 22:45,0,0,0,0
2004/4/4 23:00,0,0,0,0
2004/4/4 23:15,0,0,0,0
2004/4/4 23:30,0,0,0,0
2004/4/4 23:45,0,0,0,0
2004/4/5 0:00,0,0,0,0
2004/4/5 0:15,0,0,0,0
2004/4/5 0:30,0,0,0,0
2004/4/5 0:45,0,0,0,0
2004/4/5 1:00,0,0,0,0
2004/4/5 1:15,0,0,0,0
2004/4/5 1:30,0,0,0,0
2004/4/5 1:45,0,0,0,0
2004/4/5 2:00,0,0,0,0
2004/4/5 2:15,0,0,0,0
2004/4/5 2:30,0,0,0,0
2004/4/5 2:45,0,0,0,0
2004/4/5 3:00,0,0,0,0
2004/4/5 3:15,0,0,0,0
2004/4/5 3:30,0,0,0,0
2004/4/5 3:45,0,0,0,0
2004/4/5 4:00,0,0,0,0
2004/4/5 4:15,0,0,0,0
2004/4/5 4:30,0,0,0,0
2004/4/5 4:45,0,0,0,0
2004/4/5 5:00,0,0,0,0
2004/4/5 5:15,0,0,0,0
2004/4/5 5:30,0,0,0,0
2004/4/5 5:45,0.015183433,0,2.228928,0
2004/4/5 6:00,0.073842834,0,10.840128,0
2004/4/5 6:15,0.073847084,0,10.840752,0
2004/4/5 6:30,0.071054387,0,10.430784,0
2004/4/5 6:45,0.066064087,0,9.698208,0
2004/4/5 7:00,0.052865722,0,7.760688,0
2004/4/5 7:15,0.06214921,0,9.123504,0
2004/4/5 7:30,0.04979248,0,7.309536,0
2004/4/5 7:45,0.048194223,0,7.074912,0
2004/4/5 8:00,0.031659074,0,4.647552,0
2004/4/5 8:15,0.038115858,0,5.595408,0
2004/4/5 8:30,0.02914267,0,4.278144,0
2004/4/5 8:45,0.028262779,0,4.148976,0
2004/4/5 9:00,0,0,0,0
2004/4/5 9:15,0,0,0,0
2004/4/5 9:30,0,0,0,0
2004/4/5 9:45,0,0,0,0
2004/4/5 10:00,0,0,0,0
2004/4/5 10:15,0,0,0,0
2004/4/5 10:30,0,0,0,0
2004/4/5 10:45,0,0,0,0
2004/4/5 11:00,0,0,0,0
2004/4/5 11:15,0,0,0,0
2004/4/5 11:30,0,0,0,0
2004/4/5 11:45,0,0,0,0
2004/4/5 12:00,0,0,0,0
2004/4/5 12:15,0,0,0,0
2004/4/5 12:30,0,0,0,0
2004/4/5 12:45,0,0,0,0
2004/4/5 13:00,0,0,0,0
2004/4/5 13:15,0,0,0,0
2004/4/5 13:30,0,0,0,0
2004/4/5 13:45,0,0,0,0
2004/4/5 14:00,0,0,0,0
2004/4/5 14:15,0,0,0,0
2004/4/5 14:30,0,0,0,0
2004/4/5 14:45,0,0,0,0
2004/4/5 15:00,0,0,0,0
2004/4/5 15:15,0,0,0,0
2004/4/5 15:30,0,0,0,0
2004/4/5 15:45,0,0,0,0
2004/4/5 16:00,0,0,0,0
2004/4/5 16:15,0,0,0,0
2004/4/5 16:30,0,0,0,0
2004/4/5 16:45,0,0,0,0
2004/4/5 17:00,0.008760654,0,1.286064,0
2004/4/5 17:15,0.068674005,0,10.081344,0
2004/4/5 17:30,0.066302125,0,9.733152,0
2004/4/5 17:45,0.054574496,0,8.011536,0
2004/4/5 18:00,0.060223651,0,8.840832,0
2004/4/5 18:15,0.041856458,0,6.144528,0
2004/4/5 18:30,0.055879455,0,8.203104,0
2004/4/5 18:45,0.04380327,0,6.43032,0
2004/4/5 19:00,0,0,0,0
2004/4/5 19:15,0.009470518,0,1.390272,0
2004/4/5 19:30,0.073847084,0,10.840752,0
2004/4/5 19:45,0.067449809,0,9.901632,0
2004/4/5 20:00,0.036041526,0,5.290896,0
2004/4/5 20:15,0.037559019,0,5.513664,0
2004/4/5 20:30,0.030745177,0,4.513392,0
2004/4/5 20:45,0.021912262,0,3.21672,0
2004/4/5 21:00,0.028530572,0,4.188288,0
2004/4/5 21:15,0.061035531,0,8.960016,0
2004/4/5 21:30,0.050655368,0,7.436208,0
2004/4/5 21:45,0.054957057,0,8.067696,0
2004/4/5 22:00,0.046714986,0,6.85776,0
2004/4/5 22:15,0.017376785,0,2.550912,0
2004/4/5 22:30,0.031165995,0,4.575168,0
2004/4/5 22:45,0,0,0,0
2004/4/5 23:00,0,0,0,0
2004/4/5 23:15,0,0,0,0
2004/4/5 23:30,0,0,0,0
2004/4/5 23:45,0,0,0,0
2004/4/6 0:00,0,0,0,0
2004/4/6 0:15,0,0,0,0
2004/4/6 0:30,0,0,0,0
2004/4/6 0:45,0,0,0,0
2004/4/6 1:00,0,0,0,0
2004/4/6 1:15,0,0,0,0
2004/4/6 1:30,0,0,0,0
2004/4/6 1:45,0,0,0,0
2004/4/6 2:00,0,0,0,0
2004/4/6 2:15,0,0,0,0
2004/4/6 2:30,0,0,0,0
2004/4/6 2:45,0,0,0,0
2004/4/6 3:00,0,0,0,0
2004/4/6 3:15,0,0,0,0
2004/4/6 3:30,0,0,0,0
2004/4/6 3:45,0,0,0,0
2004/4/6 4:00,0,0,0,0
2004/4/6 4:15,0,0,0,0
2004/4/6 4:30,0,0,0,0
2004/4/6 4:45,0,0,0,0
2004/4/6 5:00,0,0,0,0
2004/4/6 5:15,0,0,0,0
2004/4/6 5:30,0,0,0,0
2004/4/6 5:45,0.014775368,0,2.169024,0
2004/4/6 6:00,0.073842834,0,10.840128,0
2004/4/6 6:15,0.071738747,0,10.531248,0
2004/4/6 6:30,0.058179074,0,8.540688,0
2004/4/6 6:45,0.057919782,0,8.502624,0
2004/4/6 7:00,0.041295368,0,6.06216,0
2004/4/6 7:15,0.05465951,0,8.024016,0
2004/4/6 7:30,0.037295477,0,5.474976,0
2004/4/6 7:45,0.042596076,0,6.253104,0
2004/4/6 8:00,0.036186049,0,5.312112,0
2004/4/6 8:15,0.040589755,0,5.958576,0
2004/4/6 8:30,0.029678256,0,4.356768,0
2004/4/6 8:45,0.039939401,0,5.863104,0
2004/4/6 9:00,0.023059946,0,3.3852,0
2004/4/6 9:15,0,0,0,0
2004/4/6 9:30,0,0,0,0
2004/4/6 9:45,0,0,0,0
2004/4/6 10:00,0.066319128,0,9.735648,0
2004/4/6 10:15,0.018464959,0,2.710656,0
2004/4/6 10:30,0.069502888,0,10.203024,0
2004/4/6 10:45,0.03125951,0,4.588896,0
2004/4/6 11:00,0,0,0,0
2004/4/6 11:15,0,0,0,0
2004/4/6 11:30,0,0,0,0
2004/4/6 11:45,0.041316621,0,6.06528,0
2004/4/6 12:00,0.063840981,0,9.371856,0
2004/4/6 12:15,0.046957275,0,6.893328,0
2004/4/6 12:30,0.039391063,0,5.782608,0
2004/4/6 12:45,0.03263673,0,4.791072,0
2004/4/6 13:00,0.03438376,0,5.047536,0
2004/4/6 13:15,0.024003597,0,3.523728,0
2004/4/6 13:30,0.027446649,0,4.029168,0
2004/4/6 13:45,0.016297112,0,2.392416,0
2004/4/6 14:00,0.015710518,0,2.306304,0
2004/4/6 14:15,0.015719019,0,2.307552,0
2004/4/6 14:30,0.015736022,0,2.310048,0
2004/4/6 14:45,0.025678365,0,3.769584,0
2004/4/6 15:00,0.017538311,0,2.574624,0
2004/4/6 15:15,0.043089155,0,6.325488,0
2004/4/6 15:30,0.046451444,0,6.819072,0
2004/4/6 15:45,0.027323379,0,4.011072,0
2004/4/6 16:00,0.015719019,0,2.307552,0
2004/4/6 16:15,0.015697766,0,2.304432,0
2004/4/6 16:30,0.01572327,0,2.308176,0
2004/4/6 16:45,0.015689264,0,2.303184,0
2004/4/6 17:00,0.015689264,0,2.303184,0
2004/4/6 17:15,0.015689264,0,2.303184,0
2004/4/6 17:30,0.015689264,0,2.303184,0
2004/4/6 17:45,0.015697766,0,2.304432,0
2004/4/6 18:00,0.01572752,0,2.3088,0
2004/4/6 18:15,0.017725341,0,2.60208,0
2004/4/6 18:30,0.025015259,0,3.67224,0
2004/4/6 18:45,0,0,0,0
2004/4/6 19:00,0,0,0,0
2004/4/6 19:15,0.000973406,0,0.142896,0
2004/4/6 19:30,0.027557166,0,4.045392,0
2004/4/6 19:45,0.01578703,0,2.317536,0
2004/4/6 20:00,0.015697766,0,2.304432,0
2004/4/6 20:15,0.063309646,0,9.293856,0
2004/4/6 20:30,0.060478692,0,8.878272,0
2004/4/6 20:45,0.02627346,0,3.856944,0
2004/4/6 21:00,0.015702016,0,2.305056,0
2004/4/6 21:15,0.020088719,0,2.949024,0
2004/4/6 21:30,0.060334169,0,8.857056,0
2004/4/6 21:45,0.038137112,0,5.598528,0
2004/4/6 22:00,0.03244545,0,4.762992,0
2004/4/6 22:15,0,0,0,0
2004/4/6 22:30,0,0,0,0
2004/4/6 22:45,0,0,0,0
2004/4/6 23:00,0,0,0,0
2004/4/6 23:15,0,0,0,0
2004/4/6 23:30,0,0,0,0
2004/4/6 23:45,0,0,0,0
2004/4/7 0:00,0,0,0,0
2004/4/7 0:15,0,0,0,0
2004/4/7 0:30,0,0,0,0
2004/4/7 0:45,0,0,0,0
2004/4/7 1:00,0,0,0,0
2004/4/7 1:15,0,0,0,0
2004/4/7 1:30,0,0,0,0
2004/4/7 1:45,0,0,0,0
2004/4/7 2:00,0,0,0,0
2004/4/7 2:15,0,0,0,0
2004/4/7 2:30,0,0,0,0
2004/4/7 2:45,0,0,0,0
2004/4/7 3:00,0,0,0,0
2004/4/7 3:15,0,0,0,0
2004/4/7 3:30,0,0,0,0
2004/4/7 3:45,0,0,0,0
2004/4/7 4:00,0,0,0,0
2004/4/7 4:15,0,0,0,0
2004/4/7 4:30,0,0,0,0
2004/4/7 4:45,0,0,0,0
2004/4/7 5:00,0,0,0,0
2004/4/7 5:15,0,0,0,0
2004/4/7 5:30,0,0,0,0
2004/4/7 5:45,0.061333079,0,9.003696,0
2004/4/7 6:00,0.055301362,0,8.11824,0
2004/4/7 6:15,0.044381362,0,6.515184,0
2004/4/7 6:30,0.041533406,0,6.097104,0
2004/4/7 6:45,0.051394986,0,7.544784,0
2004/4/7 7:00,0.032215913,0,4.729296,0
2004/4/7 7:15,0.038039346,0,5.584176,0
2004/4/7 7:30,0.034060708,0,5.000112,0
2004/4/7 7:45,0.041214605,0,6.050304,0
2004/4/7 8:00,0.069779183,0,10.243584,0
2004/4/7 8:15,0.062931335,0,9.23832,0
2004/4/7 8:30,0.05790703,0,8.500752,0
2004/4/7 8:45,0,0,0,0
2004/4/7 9:00,0,0,0,0
2004/4/7 9:15,0,0,0,0
2004/4/7 9:30,0,0,0,0
2004/4/7 9:45,0,0,0,0
2004/4/7 10:00,0,0,0,0
2004/4/7 10:15,0,0,0,0
2004/4/7 10:30,0,0,0,0
2004/4/7 10:45,0,0,0,0
2004/4/7 11:00,0,0,0,0
2004/4/7 11:15,0,0,0,0
2004/4/7 11:30,0,0,0,0
2004/4/7 11:45,0,0,0,0
2004/4/7 12:00,0,0,0,0
2004/4/7 12:15,0,0,0,0
2004/4/7 12:30,0,0,0,0
2004/4/7 12:45,0,0,0,0
2004/4/7 13:00,0,0,0,0
2004/4/7 13:15,0,0,0,0
2004/4/7 13:30,0,0,0,0
2004/4/7 13:45,0,0,0,0
2004/4/7 14:00,0.055777439,0,8.188128,0
2004/4/7 14:15,0.073851335,0,10.841376,0
2004/4/7 14:30,0.073851335,0,10.841376,0
2004/4/7 14:45,0.073851335,0,10.841376,0
2004/4/7 15:00,0.072525123,0,10.646688,0
2004/4/7 15:15,0.072856676,0,10.69536,0
2004/4/7 15:30,0.071547466,0,10.503168,0
2004/4/7 15:45,0.035042616,0,5.144256,0
2004/4/7 16:00,0.058786921,0,8.62992,0
2004/4/7 16:15,0,0,0,0
2004/4/7 16:30,0,0,0,0
2004/4/7 16:45,0,0,0,0
2004/4/7 17:00,0,0,0,0
2004/4/7 17:15,0,0,0,0
2004/4/7 17:30,0.029423215,0,4.319328,0
2004/4/7 17:45,0.073847084,0,10.840752,0
2004/4/7 18:00,0.072338093,0,10.619232,0
2004/4/7 18:15,0.072248828,0,10.606128,0
2004/4/7 18:30,0.072525123,0,10.646688,0
2004/4/7 18:45,0.06807891,0,9.993984,0
2004/4/7 19:00,0.0636497,0,9.343776,0
2004/4/7 19:15,0.059271499,0,8.701056,0
2004/4/7 19:30,0.06345842,0,9.315696,0
2004/4/7 19:45,0.058990954,0,8.659872,0
2004/4/7 20:00,0.050634114,0,7.433088,0
2004/4/7 20:15,0.015689264,0,2.303184,0
2004/4/7 20:30,0.015689264,0,2.303184,0
2004/4/7 20:45,0.015702016,0,2.305056,0
2004/4/7 21:00,0.015706267,0,2.30568,0
2004/4/7 21:15,0.025903651,0,3.802656,0
2004/4/7 21:30,0.037384741,0,5.48808,0
2004/4/7 21:45,0.033329591,0,4.892784,0
2004/4/7 22:00,0.026222452,0,3.849456,0
2004/4/7 22:15,0.036696131,0,5.386992,0
2004/4/7 22:30,0,0,0,0
2004/4/7 22:45,0,0,0,0
2004/4/7 23:00,0,0,0,0
2004/4/7 23:15,0,0,0,0
2004/4/7 23:30,0,0,0,0
2004/4/7 23:45,0,0,0,0
2004/4/8 0:00,0,0,0,0
2004/4/8 0:15,0,0,0,0
2004/4/8 0:30,0,0,0,0
2004/4/8 0:45,0,0,0,0
2004/4/8 1:00,0,0,0,0
2004/4/8 1:15,0,0,0,0
2004/4/8 1:30,0,0,0,0
2004/4/8 1:45,0,0,0,0
2004/4/8 2:00,0,0,0,0
2004/4/8 2:15,0,0,0,0
2004/4/8 2:30,0,0,0,0
2004/4/8 2:45,0,0,0,0
2004/4/8 3:00,0,0,0,0
2004/4/8 3:15,0,0,0,0
2004/4/8 3:30,0,0,0,0
2004/4/8 3:45,0,0,0,0
2004/4/8 4:00,0,0,0,0
2004/4/8 4:15,0,0,0,0
2004/4/8 4:30,0,0,0,0
2004/4/8 4:45,0,0,0,0
2004/4/8 5:00,0,0,0,0
2004/4/8 5:15,0,0,0,0
2004/4/8 5:30,0,0,0,0
2004/4/8 5:45,0.056245014,0,8.256768,0
2004/4/8 6:00,0.073842834,0,10.840128,0
2004/4/8 6:15,0.07356654,0,10.799568,0
2004/4/8 6:30,0.04674049,0,6.861504,0
2004/4/8 6:45,0.042022234,0,6.168864,0
2004/4/8 7:00,0.026077929,0,3.82824,0
2004/4/8 7:15,0.03126376,0,4.58952,0
2004/4/8 7:30,0.06252752,0,9.17904,0
2004/4/8 7:45,0.030766431,0,4.516512,0
2004/4/8 8:00,0.039539837,0,5.804448,0
2004/4/8 8:15,0.031178747,0,4.57704,0
2004/4/8 8:30,0.0355697,0,5.221632,0
2004/4/8 8:45,0.046056131,0,6.76104,0
2004/4/8 9:00,0,0,0,0
2004/4/8 9:15,0.058183324,0,8.541312,0
2004/4/8 9:30,0.073740817,0,10.825152,0
2004/4/8 9:45,0.066166104,0,9.713184,0
2004/4/8 10:00,0.063318147,0,9.295104,0
2004/4/8 10:15,0.045422779,0,6.668064,0
2004/4/8 10:30,0.045359019,0,6.658704,0
2004/4/8 10:45,0,0,0,0
2004/4/8 11:00,0.050774387,0,7.45368,0
2004/4/8 11:15,0.052147357,0,7.655232,0
2004/4/8 11:30,0.043140163,0,6.332976,0
2004/4/8 11:45,0.037244469,0,5.467488,0
2004/4/8 12:00,0.04623891,0,6.787872,0
2004/4/8 12:15,0,0,0,0
2004/4/8 12:30,0,0,0,0
2004/4/8 12:45,0,0,0,0
2004/4/8 13:00,0,0,0,0
2004/4/8 13:15,0.023408501,0,3.436368,0
2004/4/8 13:30,0.046043379,0,6.759168,0
2004/4/8 13:45,0.016879455,0,2.477904,0